www.pogodaiklimat.ru

ПОГОДА на Базе ВВС Уайтман, MO

  • Прогноз погоды на Базе ВВС Уайтман
  • Монитор погоды на Базе ВВС Уайтман
  • Климат на Базе ВВС Уайтман

АРХИВ ПОГОДЫ на Базе ВВС Уайтман

Время (UTC), дата Ветер
(напр.,м/с)
 
Видим.   Явления Облачность Т
(С)
Тd
(С)
f
(%)
Тe
(С)
Тes
(С)
Комфортность

P
(гПа)

Po
(гПа)
Тmin
(С)
Tmax
(С)
R
(мм)
SD
(см)
22:56 21.05 Ю  7
{11} 
16 км    2/0 4500 м
[средняя] 
+18.8  +15.6  82  +19  +20    998.3  967.2  +13.9  +18.9  13.5   
00:56 22.05 Ю  6
{9} 
16 км    ясно  +16.2  +15.1  93  +15  +15    999.7  968.5         
01:56 22.05 Ю  6
{9} 
16 км    ясно  +15.8  +14.3  91  +14  +14    1000.0  968.9         
02:56 22.05 Ю  5
{9} 
16 км    ясно  +15.5  +13.7  89  +14  +14    1000.3  969.2         
03:56 22.05 Ю  6
{10} 
16 км    ясно  +15.4  +13.2  87  +14  +14    1000.3  969.2         
04:56 22.05 Ю  16 км    ясно  +14.8  +13.0  89  +13  +13    1000.4  969.2  +14.8  +18.7     
05:56 22.05 Ю  6
{10} 
16 км    ясно  +14.8  +12.8  88  +13  +13    1000.3  969.2         
06:56 22.05 Ю  16 км    ясно  +15.1  +12.6  85  +13  +13    1000.9  969.8         
07:56 22.05 Ю  16 км    ясно  +15.0  +12.5  85  +13  +13    1001.6  970.5         
08:56 22.05 Ю  16 км    ясно  +13.7  +12.6  93  +12  +12    1002.3  971.1         
09:56 22.05 Ю  16 км    5/0 3600 м
[средняя] 
+13.8  +12.4  91  +12  +12    1002.7  971.5         
10:56 22.05 Ю  16 км    5/0 3600 м
[средняя] 
+15.2  +12.1  82  +13  +13    1003.3  972.1  +13.6  +15.2     
11:56 22.05 Ю  6
{10} 
16 км    5/0 3600 м
[средняя] 
+16.2  +12.2  77  +15  +15    1004.3  973.1         
12:56 22.05 Ю  7
{10} 
16 км    8/0 3600 м
[средняя] 
+18.3  +12.9  71  +18  +18    1005.0  973.8         
13:56 22.05 ЮЗ  10
{13} 
16 км    5/0 3600 м
[средняя] 
+20.3  +13.3  64  +22  +22  комфорт  1005.9  974.8         
14:56 22.05 ЮЗ  10  16 км    2/0 3000 м
[средняя] 
+22.0  +13.9  60  +25  +25  комфорт  1006.6  975.4         
15:56 22.05 ЮЗ  9
{13} 
16 км    8/5 1200 м
[средняя] 
+23.3  +16.1  64  +28  +28  душно  1006.9  975.7         
16:56 22.05 ЮЗ  8
{11} 
16 км    10/8 1110 м
[средняя] 
+23.2  +16.9  68  +28  +28  душно  1007.2  976.1  +15.3  +23.4     
17:41 22.05 ЮЗ  9
{11} 
16 км    10/10 690 м  +22.0  +18.0  78  +27  +27  душно  1007.3  976.1         
17:56 22.05 ЮЗ  8
{12} 
16 км    10/10 720 м  +22.2  +18.6  80  +27  +27  душно  1007.3  976.1         
18:23 22.05 ЮЗ  16 км  слабая морось  10/10 720 м  +22.0  +19.0  83  +27  +27  душно  1007.6  976.4         
18:41 22.05 ЮЗ  16 км    8/8 660 м
[средняя] 
+22.0  +20.0  88  +28  +29  душно  1007.6  976.4         
18:45 22.05 ЮЗ  16 км  слабая морось  10/10 660 м  +22.0  +21.0  94  +28  +28  душно  1007.6  976.4         
18:47 22.05 ЮЗ  16 км    10/10 660 м  +22.0  +20.0  88  +28  +28  душно  1007.6  976.4         
18:57 22.05 ЮЗ  16 км    8/8 600 м  +22.4  +20.3  88  +29  +30  очень
душно 
1007.6  976.4         
19:56 22.05 ЮЗ  8
{11} 
16 км    5/5 150 м  +25.1  +20.5  76  +31  +32  очень
душно 
1007.5  976.4         
20:56 22.05 ЮЗ  16 км    8/8 600 м
[средняя] 
+25.8  +21.0  75  +32  +33  очень
душно 
1007.2  976.1         
21:57 22.05 ЮЗ  16 км    8/8 1500 м
[средняя] 
+25.2  +21.1  78  +32  +33  очень
душно 
1007.6  976.4         
22:56 22.05 Ю  16 км    8/8 600 м  +24.0  +22.8  93  +32  +33  очень
душно 
1006.5  975.4  +21.5  +26.1     
23:25 22.05   16 км  слабый дождь  8/8 600 м  +24.0  +23.0  94  +32  +32  очень
душно 
1006.5  975.4         
23:36 22.05 С  8 км  гроза со слабым дождем  8/8 300 м  +23.0  +23.0  100  +32  +32  очень
душно 
1006.2  975.1         
23:56 22.05 СЗ  13 км  гроза со слабым дождем  10/10 300 м  +22.6  +22.6  100  +31  +31  очень
душно 
1006.2  975.1         
00:35 23.05   16 км  гроза  8/8 300 м  +21.0  +21.0  100  +26  +26  душно  1008.6  977.4         
00:56 23.05 С  16 км  гроза  8/8 300 м  +20.5  +20.5  100  +26  +26  душно  1009.2  978.0      1.3   
01:13 23.05 Ю  7
{9} 
5 км  гроза с сильным дождем  8/8 810 м  +20.0  +20.0  100  +23  +23  комфорт  1010.6  979.3         
01:24 23.05 ЮЗ  4
{8} 
3 км  гроза со слабым дождем, дымка  8/8 570 м  +20.0  +20.0  100  +23  +23  комфорт  1009.9  978.7         
01:56 23.05 З  16 км  слабый дождь, гроза  8/8 900 м  +19.4  +19.4  100  +22  +22  комфорт  1010.3  979.0      12.7   
02:24 23.05 С  16 км    8/8 1200 м  +19.0  +19.0  100  +21  +21  комфорт  1010.9  979.7         
02:58 23.05 С  16 км    8/8 1350 м  +19.0  +19.0  100  +21  +21  комфорт  1010.9  979.7         
03:15 23.05   16 км  гроза  8/8 1320 м  +19.0  +19.0  100  +21  +21  комфорт  1011.9  980.7         
03:45 23.05 ЮВ  11 км  гроза со слабым дождем  10/10 60 м  +19.0  +19.0  100  +22  +22  комфорт  1012.2  981.0         
03:56 23.05 СЗ  6 км  гроза с сильным дождем, дымка  8/8 150 м  +19.0  +19.0  100  +21  +21  комфорт  1013.9  982.6         
04:56 23.05 В  11 км  слабый дождь, гроза  10/10 660 м  +16.7  +16.7  100  +16  +16    1013.7  982.3  +16.7  +24.0  38.9   
05:07 23.05 ЮВ  16 км  гроза  8/8 720 м  +17.0  +17.0  100  +17  +17    1013.3  982.0         
05:22 23.05 ЮВ  16 км    8/8 1200 м  +17.0  +17.0  100  +17  +17    1013.7  982.3         
05:56 23.05   16 км    10/10 1650 м  +16.7  +16.7  100  +17  +17    1013.7  982.3         
06:56 23.05 В  16 км    8/2 1500 м
[средняя] 
+16.2  +16.2  100  +16  +16    1014.1  982.6         
07:56 23.05 С  16 км    8/2 1500 м
[средняя] 
+15.8  +15.8  100  +16  +16    1013.6  982.3         

 

Местоположение метеостанции Whiteman Air Force Base: широта 38.7333 долгота -93.5500 высота над уровнем моря 265 м.

В архиве по умолчанию представлена погода на Базе ВВС Уайтман за последние 1-2 суток. Обновление информации о фактической погоде в базе происходит ежечасно! Архивные данные за месяц целиком и за предыдущие месяцы Вы можете получить, выбрав интересующий диапазон дат из раскрывающегося списка и нажав кнопку "Ввод!".

Внимание! Архив погоды МЕТАР в базе сайта хранится не более 60 дней. Нет смысла пытаться выбрать более раннюю дату.

Внимание! Время в таблицах - всемирное. Для получения местного времени необходимо прибавить поправку, которая на Базе ВВС Уайтман равна -6 ч.

Ветер - указаны скорость ветра в м/с и направление, откуда дует ветер: С - северный, СВ - северо-восточный, В - восточный, ЮВ - юго-восточный, Ю - южный, ЮЗ - юго-западный, З - западный, СЗ - северо-западный.
Видимость - горизонтальная дальность видимости в метрах или километрах. При видимости от 1 до 10 км при отсутствии осадков обычно наблюдается дымка, при ухудшении видимости до 1 км и менее - туман. В сухую погоду видимость может ухудшаться дымом, пылью или мглою.
Атмосферные явления - указаны явления, наблюдавшиеся в указанный момент времени.
Облачность - указаны через наклонную черту верхняя и нижняя облачность в баллах и высота нижней границы облаков в метрах. Внимание: облачность, как и прочие метеорологические величины в США измеряются автоматическими метеостанциями. Указанные значения в баллах носят условный характер и показывают процент времени, в течение которого, в среднем, лазерный луч высотомера отражался от облаков обратно.
T - Температура воздуха - температура, измеренная на высоте 2 м над землей.
Td - Температура точки росы - температура, при понижении до которой содержащийся в воздухе водяной пар достигнет насыщения.
f - Относительная влажность воздуха - влажноcть воздуха, измеренная на высоте 2 м над землей.
Te - Эффективная температура - температура, которую ощущает одетый по сезону человек в тени. Характеристика душности погоды. При расчете учитывается влияние влажности воздуха и скорости ветра на теплоощущения человека.
Tes - Эффективная температура на солнце - температура, которую ощущает человек, с поправкой на солнечный нагрев. Характеристика знойности погоды. Зависит от высоты солнца над горизонтом, облачности и скорости ветра. Ночью, в пасмурную погоду, а также при ветре 12 м/с и более поправка равна нулю.
P - Атмосферное давление - приведенное к уровню моря атмосферное давление.
Po - Атмосферное давление - измеренное на уровне метеостанции атмосферное давление.
Tmin - Минимальная температура - минимум температуры воздуха на высоте 2 м над землей.
Tmax - Максимальная температура - максимум температуры воздуха на высоте 2 м над землей.
R - Количество осадков - Количество выпавших осадков за 3 или 6 часов, мм.
SD - Снежный покров - Высота снежного покрова, см.